DW8293 Hedemora SE current weather conditions

sailwx.info

Wind from 181

Air temperature 8.9° C
Dewpoint 8.7° C

Last reported at 2019-Aug-22 03:00 UTC.
Time now 2019-Aug-22 03:21 UTC

Location: N 60°16' E 015°60'.
View on Google Maps.

See reports from other nearby stations

  
Tides and Currents Weather Stations Pressure Air Temp Water Temp Dewpoint Dewpoint Depression Visibility Wind Speed Wind Dir Waves Ship Positions
date/time (UTC)wind fromknots sea level pressurealtimeterstation pressurevisibilityair tempwater tempwave heightnotes
2019-Aug-22 03:00 181 8.9
2019-Aug-22 02:51 181 1 gusting 1 8.9
2019-Aug-22 02:42 181 8.9
2019-Aug-22 02:33 181 8.9
2019-Aug-22 02:24 8.9
2019-Aug-22 02:15 181 8.9
2019-Aug-22 02:06 181 8.9
2019-Aug-22 01:57 9.4
2019-Aug-22 01:48 181 9.4
2019-Aug-22 01:39 9.4
2019-Aug-22 01:30 10.0
2019-Aug-22 01:21 181 10.6
2019-Aug-22 01:12 181 0 gusting 1 11.1
2019-Aug-22 01:03 181 1 gusting 3 11.1
2019-Aug-22 00:54 181 0 gusting 1 10.6
2019-Aug-22 00:45 181 10.6
2019-Aug-22 00:36 181 11.7
2019-Aug-22 00:27 181 12.2
2019-Aug-22 00:18 181 12.2
2019-Aug-22 00:09 181 12.2
2019-Aug-22 00:00 181 1 gusting 4 12.8
2019-Aug-21 23:51 184 1 gusting 4 12.2
2019-Aug-21 23:42 225 1 gusting 3 12.2
2019-Aug-21 23:33 232 1 gusting 3 12.2
2019-Aug-21 23:24 247 1 gusting 3 12.2
2019-Aug-21 23:15 241 2 gusting 3 12.2
2019-Aug-21 23:06 230 0 gusting 3 12.2
2019-Aug-21 22:57 225 1 gusting 3 11.7
2019-Aug-21 22:48 225 11.7
2019-Aug-21 22:39 237 11.7
2019-Aug-21 22:30 345 12.2
2019-Aug-21 22:21 181 0 gusting 2 12.8
2019-Aug-21 22:12 181 0 gusting 2 12.8
2019-Aug-21 22:03 181 1 gusting 3 12.8
2019-Aug-21 21:54 090 12.8
2019-Aug-21 21:45 181 13.3
2019-Aug-21 21:36 196 1 gusting 2 13.3
2019-Aug-21 21:27 208 13.3
2019-Aug-21 21:18 254 13.9
2019-Aug-21 21:09 270 0 gusting 3 13.9
2019-Aug-21 21:00 270 1 gusting 3 15.0
2019-Aug-21 20:51 264 15.0
2019-Aug-21 20:42 261 1 gusting 4 15.6
2019-Aug-21 20:33 270 1 gusting 3 15.6
2019-Aug-21 20:24 270 0 gusting 1 15.6
2019-Aug-21 20:15 270 15.6
2019-Aug-21 20:06 270 0 gusting 3 15.6
2019-Aug-21 19:57 258 0 gusting 3 15.6
2019-Aug-21 19:48 239 1 gusting 3 15.6
2019-Aug-21 19:39 239 1 gusting 2 15.6
2019-Aug-21 19:30 265 0 gusting 3 15.6
2019-Aug-21 19:21 270 1 gusting 3 15.6
2019-Aug-21 19:12 251 16.1
2019-Aug-21 19:03 225 0 gusting 3 16.1
2019-Aug-21 18:54 221 1 gusting 4 16.7
2019-Aug-21 18:45 251 1 gusting 3 16.7
2019-Aug-21 18:36 251 16.7
2019-Aug-21 18:27 191 1 gusting 4 17.2
2019-Aug-21 18:18 222 0 gusting 3 17.2
2019-Aug-21 18:09 213 0 gusting 4 17.8
2019-Aug-21 18:00 198 1 gusting 6 18.3
2019-Aug-21 17:51 191 2 gusting 6 18.9
2019-Aug-21 17:42 223 4 gusting 6 19.4
2019-Aug-21 17:33 206 1 gusting 6 20.0
2019-Aug-21 17:24 218 3 gusting 6 20.0
2019-Aug-21 17:15 215 0 gusting 6 20.6
2019-Aug-21 17:06 225 3 gusting 6 20.6
2019-Aug-21 16:57 225 3 gusting 7 20.0
2019-Aug-21 16:48 225 5 gusting 9 20.0
2019-Aug-21 16:39 225 1 gusting 9 20.6
2019-Aug-21 16:30 225 1 gusting 12 21.1
2019-Aug-21 16:21 224 2 gusting 9 21.1
2019-Aug-21 16:12 188 6 gusting 13 21.1
2019-Aug-21 16:03 181 3 gusting 12 21.1
2019-Aug-21 15:54 181 4 gusting 9 21.1
2019-Aug-21 15:45 181 3 gusting 7 20.6
2019-Aug-21 15:36 181 2 gusting 6 21.7
2019-Aug-21 15:27 181 3 gusting 10 21.1
2019-Aug-21 15:18 181 3 gusting 12 20.0
2019-Aug-21 15:09 181 3 gusting 7 19.4
2019-Aug-21 15:00 181 2 gusting 6 20.0
2019-Aug-21 14:51 181 3 gusting 10 19.4
2019-Aug-21 14:42 181 3 gusting 13 19.4
2019-Aug-21 14:33 181 1 gusting 6 19.4
2019-Aug-21 14:24 181 3 gusting 8 18.9
2019-Aug-21 14:15 181 3 gusting 8 18.9
2019-Aug-21 14:06 181 2 gusting 9 19.4
2019-Aug-21 13:57 181 6 gusting 14 19.4
2019-Aug-21 13:48 181 9 gusting 14 20.0
2019-Aug-21 13:39 181 5 gusting 9 19.4
2019-Aug-21 13:30 178 4 gusting 12 20.0
2019-Aug-21 13:21 147 8 gusting 12 20.6
2019-Aug-21 13:12 135 2 gusting 7 20.6
2019-Aug-21 13:03 135 1 gusting 9 20.6
2019-Aug-21 12:54 135 4 gusting 13 21.7
2019-Aug-21 12:45 135 1 gusting 13 21.7
2019-Aug-21 12:36 135 4 gusting 13 21.1
2019-Aug-21 12:27 135 4 gusting 11 21.1
2019-Aug-21 12:18 136 2 gusting 11 21.7
2019-Aug-21 12:09 132 4 gusting 12 21.1
2019-Aug-21 12:00 143 2 gusting 11 20.6
2019-Aug-21 11:51 182 5 gusting 13 20.6
2019-Aug-21 11:42 148 4 gusting 9 20.6
2019-Aug-21 11:33 171 2 gusting 10 20.0
2019-Aug-21 11:24 162 5 gusting 12 20.0
2019-Aug-21 11:15 158 6 gusting 14 20.0
2019-Aug-21 11:06 189 3 gusting 12 19.4
2019-Aug-21 10:57 184 2 gusting 11 20.0
2019-Aug-21 10:48 196 6 gusting 12 20.6
2019-Aug-21 10:39 211 4 gusting 13 20.0
2019-Aug-21 10:30 225 9 gusting 13 20.6
2019-Aug-21 10:21 230 3 gusting 13 20.6
2019-Aug-21 10:12 244 3 gusting 7 20.6
2019-Aug-21 10:03 244 6 gusting 12 20.6
2019-Aug-21 09:54 183 7 gusting 12 20.6
2019-Aug-21 09:45 210 3 gusting 10 20.0
2019-Aug-21 09:36 181 3 gusting 9 18.9
2019-Aug-21 09:27 201 6 gusting 11 18.9
2019-Aug-21 09:18 232 4 gusting 11 17.8
2019-Aug-21 09:09 224 5 gusting 13 18.3
2019-Aug-21 09:00 205 9 gusting 13 18.3
2019-Aug-21 08:51 235 3 gusting 6 19.4
2019-Aug-21 08:42 181 2 gusting 6 17.8
2019-Aug-21 08:33 181 1 gusting 9 17.8
2019-Aug-21 08:24 190 6 gusting 9 17.8
2019-Aug-21 08:15 178 2 gusting 5 17.8
2019-Aug-21 08:06 207 3 gusting 5 17.2
2019-Aug-21 07:57 203 1 gusting 6 16.7
2019-Aug-21 07:48 104 2 gusting 6 16.1
2019-Aug-21 07:39 183 1 gusting 6 16.1
2019-Aug-21 07:30 175 3 gusting 6 15.6
2019-Aug-21 07:21 151 3 gusting 6 15.6
2019-Aug-21 07:12 138 3 gusting 6 15.6
2019-Aug-21 07:03 149 3 gusting 9 15.6
2019-Aug-21 06:54 152 1 gusting 8 15.6
2019-Aug-21 06:45 094 0 gusting 6 15.6
2019-Aug-21 06:36 133 2 gusting 5 15.6
2019-Aug-21 06:27 129 2 gusting 5 15.0
2019-Aug-21 06:18 121 2 gusting 6 15.0
2019-Aug-21 06:09 119 3 gusting 6 14.4
2019-Aug-21 06:00 199 1 gusting 2 13.3
2019-Aug-21 05:51 175 0 gusting 3 12.2
2019-Aug-21 05:42 114 1 gusting 3 12.2
2019-Aug-21 05:33 090 1 gusting 4 12.2
2019-Aug-21 05:24 090 1 gusting 4 11.7
2019-Aug-21 05:15 087 1 gusting 5 11.7
2019-Aug-21 05:06 087 1 gusting 3 11.7
2019-Aug-21 04:57 195 11.1
2019-Aug-21 04:48 148 0 gusting 3 11.1
2019-Aug-21 04:39 191 1 gusting 3 10.6
2019-Aug-21 04:30 262 0 gusting 1 10.6
2019-Aug-21 04:21 270 10.6
2019-Aug-21 04:12 264 10.6
2019-Aug-21 04:03 242 11.1
2019-Aug-21 03:54 215 0 gusting 3 10.6
2019-Aug-21 03:45 173 0 gusting 3 10.6
2019-Aug-21 03:36 177 1 gusting 3 10.6
2019-Aug-21 03:27 169 1 gusting 2 10.6
2019-Aug-21 03:18 152 0 gusting 1 10.6
2019-Aug-21 03:09 166 10.6
2019-Aug-21 03:00 171 0 gusting 3 10.6
2019-Aug-21 02:51 055 0 gusting 2 10.6
2019-Aug-21 02:42 045 0 gusting 1 10.6
2019-Aug-21 02:33 046 0 gusting 2 11.1
2019-Aug-21 02:24 045 1 gusting 3 11.1
2019-Aug-21 02:15 045 1 gusting 3 10.6
2019-Aug-21 02:06 045 1 gusting 2 10.6
2019-Aug-21 01:57 046 1 gusting 1 10.6
2019-Aug-21 01:48 035 0 gusting 3 10.6
2019-Aug-21 01:39 001 1 gusting 3 10.6
2019-Aug-21 01:30 001 1 gusting 1 10.6
2019-Aug-21 01:21 001 10.6
2019-Aug-21 01:12 001 10.6
2019-Aug-21 01:03 001 10.6
2019-Aug-21 00:54 001 10.6
2019-Aug-21 00:45 001 0 gusting 2 10.6
2019-Aug-21 00:36 001 11.1
2019-Aug-21 00:27 001 0 gusting 3 11.1
2019-Aug-21 00:18 001 1 gusting 3 11.1
2019-Aug-21 00:09 353 10.6
2019-Aug-21 00:00 333 10.6
2019-Aug-20 23:51 270 10.6
2019-Aug-20 23:42 270 0 gusting 1 11.1
2019-Aug-20 23:33 270 11.7
2019-Aug-20 23:24 270 12.2
2019-Aug-20 23:15 231 12.8
2019-Aug-20 23:06 135 0 gusting 4 12.8
2019-Aug-20 22:57 155 1 gusting 4 12.8
2019-Aug-20 22:48 244 1 gusting 3 12.8
2019-Aug-20 22:39 165 1 gusting 7 13.3
2019-Aug-20 22:30 175 2 gusting 6 13.3
2019-Aug-20 22:21 177 1 gusting 7 13.3
2019-Aug-20 22:12 173 1 gusting 7 13.3
2019-Aug-20 22:03 176 2 gusting 5 13.3
2019-Aug-20 21:54 161 1 gusting 5 13.3
2019-Aug-20 21:45 140 1 gusting 4 13.3
2019-Aug-20 21:36 174 1 gusting 4 13.3
2019-Aug-20 21:27 143 1 gusting 4 13.9
2019-Aug-20 21:18 135 1 gusting 3 13.9
2019-Aug-20 21:09 155 1 gusting 3 13.9
2019-Aug-20 21:00 175 0 gusting 6 13.9
2019-Aug-20 20:51 174 1 gusting 6 14.4
2019-Aug-20 20:42 135 2 gusting 6 14.4
2019-Aug-20 20:33 153 2 gusting 6 14.4
2019-Aug-20 20:24 177 3 gusting 6 14.4
2019-Aug-20 20:15 135 1 gusting 6 14.4
2019-Aug-20 20:06 135 1 gusting 3 15.0
2019-Aug-20 19:57 135 1 gusting 5 15.0
2019-Aug-20 19:48 135 1 gusting 5 15.0
2019-Aug-20 19:39 135 1 gusting 6 15.6
2019-Aug-20 19:30 137 1 gusting 6 15.6
2019-Aug-20 19:21 153 1 gusting 6 15.6
2019-Aug-20 19:12 141 2 gusting 5 15.6
2019-Aug-20 19:03 138 1 gusting 6 15.6
2019-Aug-20 18:54 164 1 gusting 6 16.1
2019-Aug-20 18:45 178 3 gusting 6 16.1
2019-Aug-20 18:36 169 2 gusting 7 16.7
2019-Aug-20 18:27 154 0 gusting 6 16.7
2019-Aug-20 18:18 194 1 gusting 6 17.2
2019-Aug-20 18:09 149 1 gusting 4 17.2
2019-Aug-20 18:00 135 2 gusting 6 17.8
2019-Aug-20 17:51 209 1 gusting 6 18.3
2019-Aug-20 17:42 206 2 gusting 6 18.9
2019-Aug-20 17:33 164 2 gusting 6 19.4
2019-Aug-20 17:24 157 0 gusting 4 19.4
2019-Aug-20 17:15 213 1 gusting 8 19.4
2019-Aug-20 17:06 215 1 gusting 9 19.4
2019-Aug-20 16:57 218 3 gusting 8 18.9
2019-Aug-20 16:48 234 4 gusting 9 18.3
2019-Aug-20 16:39 210 3 gusting 13 18.3
2019-Aug-20 16:30 195 6 gusting 16 19.4
2019-Aug-20 16:21 208 2 gusting 13 20.0
2019-Aug-20 16:12 196 6 gusting 13 20.0
2019-Aug-20 16:03 191 8 gusting 17 20.0
2019-Aug-20 15:54 183 6 gusting 14 20.6
2019-Aug-20 15:45 181 5 gusting 14 20.6
2019-Aug-20 15:36 151 4 gusting 12 20.6
2019-Aug-20 15:27 149 3 gusting 9 21.1
2019-Aug-20 15:18 200 3 gusting 9 21.1
2019-Aug-20 15:09 186 1 gusting 10 20.6
2019-Aug-20 15:00 213 4 gusting 11 20.0
2019-Aug-20 14:51 225 6 gusting 18 19.4
2019-Aug-20 14:42 209 7 gusting 18 18.9
2019-Aug-20 14:33 185 5 gusting 13 18.9
2019-Aug-20 14:24 181 6 gusting 15 18.3
2019-Aug-20 14:15 181 6 gusting 19 18.3
2019-Aug-20 14:06 181 6 gusting 17 18.9
2019-Aug-20 13:57 181 6 gusting 19 18.9
2019-Aug-20 13:48 189 11 gusting 19 19.4
2019-Aug-20 13:39 200 7 gusting 13 20.0
2019-Aug-20 13:30 214 5 gusting 13 19.4
2019-Aug-20 13:21 178 6 gusting 14 19.4
2019-Aug-20 13:12 207 5 gusting 17 20.0
2019-Aug-20 13:03 200 8 gusting 17 20.0
2019-Aug-20 12:54 197 6 gusting 19 20.6
2019-Aug-20 12:45 225 2 gusting 9 19.4
2019-Aug-20 12:36 225 3 gusting 15 19.4
2019-Aug-20 12:27 191 3 gusting 19 20.6
2019-Aug-20 12:18 159 6 gusting 19 21.7
2019-Aug-20 12:09 139 3 gusting 13 21.1
2019-Aug-20 12:00 186 3 gusting 13 20.6
2019-Aug-20 11:51 178 3 gusting 19 21.1
2019-Aug-20 11:42 174 6 gusting 17 21.1
2019-Aug-20 11:33 175 9 gusting 18 21.1
2019-Aug-20 11:24 206 9 gusting 14 21.1
2019-Aug-20 11:15 181 4 gusting 15 20.0
2019-Aug-20 11:06 212 6 gusting 13 20.6
2019-Aug-20 10:57 221 6 gusting 15 19.4
2019-Aug-20 10:48 197 8 gusting 16 20.0
2019-Aug-20 10:39 228 6 gusting 14 20.0
2019-Aug-20 10:30 181 5 gusting 13 20.0
2019-Aug-20 10:21 189 6 gusting 21 19.4
2019-Aug-20 10:12 190 8 gusting 14 19.4
2019-Aug-20 10:03 170 7 gusting 14 19.4
2019-Aug-20 09:54 189 4 gusting 13 20.0
2019-Aug-20 09:45 189 5 gusting 14 20.0
2019-Aug-20 09:36 184 5 gusting 13 19.4
2019-Aug-20 09:27 205 4 gusting 18 19.4
2019-Aug-20 09:18 179 9 gusting 19 18.9
2019-Aug-20 09:09 182 8 gusting 15 18.9
2019-Aug-20 09:00 191 6 gusting 14 18.3
2019-Aug-20 08:51 185 6 gusting 14 18.3
2019-Aug-20 08:42 186 3 gusting 13 17.8
2019-Aug-20 08:33 198 8 gusting 15 17.2
2019-Aug-20 08:24 200 8 gusting 15 17.2
2019-Aug-20 08:15 196 7 gusting 13 17.2
2019-Aug-20 08:06 201 4 gusting 14 17.2
2019-Aug-20 07:57 170 6 gusting 13 17.2
2019-Aug-20 07:48 176 3 gusting 11 17.2
2019-Aug-20 07:39 166 3 gusting 9 17.2
2019-Aug-20 07:30 186 3 gusting 10 16.7
2019-Aug-20 07:21 176 3 gusting 12 17.2
2019-Aug-20 07:12 196 2 gusting 11 17.2
2019-Aug-20 07:03 209 6 gusting 9 17.2
2019-Aug-20 06:54 169 5 gusting 11 17.2
2019-Aug-20 06:45 184 4 gusting 10 17.2
2019-Aug-20 06:36 178 3 gusting 7 16.7
2019-Aug-20 06:27 159 5 gusting 9 16.7
2019-Aug-20 06:18 146 5 gusting 12 16.1
2019-Aug-20 06:09 186 5 gusting 13 15.6
2019-Aug-20 06:00 141 2 gusting 9 15.0
2019-Aug-20 05:51 147 3 gusting 8 15.0
2019-Aug-20 05:42 135 3 gusting 8 15.0
2019-Aug-20 05:33 153 3 gusting 9 15.0
2019-Aug-20 05:24 141 3 gusting 7 14.4
2019-Aug-20 05:15 105 1 gusting 7 13.9
2019-Aug-20 05:06 111 3 gusting 7 13.9
2019-Aug-20 04:57 136 2 gusting 6 13.9
2019-Aug-20 04:48 090 3 gusting 6 13.9
2019-Aug-20 04:39 090 2 gusting 7 13.3
2019-Aug-20 04:30 090 1 gusting 6 13.3
2019-Aug-20 04:21 090 0 gusting 4 12.8
2019-Aug-20 04:12 098 1 gusting 3 12.2
2019-Aug-20 04:03 134 12.2
2019-Aug-20 03:54 116 0 gusting 3 12.2
2019-Aug-20 03:45 090 1 gusting 3 12.2
2019-Aug-20 03:36 090 1 gusting 4 12.2
2019-Aug-20 03:27 090 0 gusting 5 12.8
2019-Aug-20 03:18 090 1 gusting 6 12.8
2019-Aug-20 03:09 090 2 gusting 6 12.8
2019-Aug-20 03:00 090 2 gusting 6 12.8